Regional Weather Roundup
Issued by NWS Goodland, KS

Home | Current Version | Previous Version | Graphics & Text | Print | Product List | Glossary On
Versions: 1 2 3 4 5 6 7 8 9 10 11 12 13 14 15 16 17 18 19 20 21 22 23 24 25 26 27 28 29 30 31 32 33 34 35 36 37 38 39 40 41 42 43 44 45 46 47 48 49 50
000
ASUS43 KGLD 251208
RWRGLD

GOODLAND FORECAST AREA HOURLY WEATHER ROUNDUP
NATIONAL WEATHER SERVICE GOODLAND KS
500 AM MST SAT FEB 25 2017

...OFFICIAL OBSERVATIONS...

CITY           SKY/WX    TMP DP  RH WIND       PRES   REMARKS
GOODLAND KS    CLOUDY    20  16  84 SW12      30.05S WCI   8
HILL CITY KS   CLEAR      9   6  88 W7        30.14S
IMPERIAL NEB   CLEAR     11   7  84 SW7       30.04F
MCCOOK NEB     CLEAR      8   6  92 W5        30.10S
AKRON CO       CLEAR     17  11  77 SW10      29.96S WCI   5
BURLINGTON CO  CLOUDY    21  17  84 SW13      30.02F WCI   9
LIMON CO       CLEAR     14  10  84 CALM      29.97S
$$

...UNOFFICIAL OBSERVATIONS...

CITY           SKY/WX    TMP DP  RH WIND       PRES   REMARKS
LENORA KS        N/A     12  32 100 W5          N/A
SHARON SPRINGS   N/A     20  17  87 SW8         N/A
TRENTON NEB      N/A     11  32 100 CALM        N/A
KIT CARSON CO    N/A     15  12  86 MISG        N/A
YUMA CO        FAIR      14  10  85 SW5       29.99S
$$




USA.gov is the U.S. government's official web portal to all federal, state and local government web resources and services.